{"data":{"norad_id":64004,"intl_designator":"2025-101L","name":"STARLINK-33758","alt_names":[],"object_type":"PAYLOAD","status":"ACTIVE","operator":null,"country":"US","launch_date":"2025-05-14","launch_site_code":"AFETR","launch_vehicle":null,"mission":null,"orbit_class":"UNKNOWN","rcs_meters":null,"size_class":null,"mass_kg":null,"dimensions":null,"purposes":["comms"],"wikipedia_slug":null,"has_3d_model":false,"image_url":null,"decayed_at":null,"tle_current":{"epoch":"2026-09-20T22:20:11.558112Z","epoch_age_seconds":106397,"freshness":"FRESH","line1":"1 64004U 25101L   26263.93068933  .00016139  00000+0  59454-3 0  9992","line2":"2 64004  43.0044 335.4445 0002184 268.6715  91.3887 15.27588976 76916","mean_motion":15.27588976,"eccentricity":0.0002184,"inclination_deg":43.0044,"raan_deg":335.4445,"arg_perigee_deg":268.6715,"mean_anomaly_deg":91.3887,"bstar":0.00059454,"rev_number":7691,"period_min":94.266194809198,"perigee_km":481.52374162478,"apogee_km":484.52069597155,"semimajor_km":6861.1592187982,"source":"CELESTRAK","updated_at":"2026-09-21T09:00:35.181766Z"}}}